| time (UTC) | temp C | wind direction | speed KPH | gust KPH | rain 1hr cm | rain 24hr cm | rain mn cm | humidity % | barometer mb |
| 20260507044504 | 1 | 266 | 11.3 | 29.0 | 0.00 | 1.70 | 1.70 | 50 | 1017.6 |
| 20260507044004 | 1 | 273 | 16.1 | 32.2 | 0.00 | 1.70 | 1.70 | 50 | 1017.6 |
| 20260507043504 | 1 | 263 | 19.3 | 33.8 | 0.00 | 1.70 | 1.70 | 50 | 1017.4 |
| 20260507043004 | 1 | 258 | 14.5 | 25.7 | 0.00 | 1.70 | 1.70 | 50 | 1017.5 |
| 20260507042504 | 1 | 262 | 16.1 | 27.4 | 0.00 | 1.70 | 1.70 | 50 | 1017.3 |
| 20260507042004 | 1 | 275 | 20.9 | 33.8 | 0.00 | 1.70 | 1.70 | 50 | 1017.3 |
| 20260507041504 | 1 | 275 | 19.3 | 40.2 | 0.00 | 1.70 | 1.70 | 51 | 1017.3 |
| 20260507041004 | 1 | 265 | 32.2 | 40.2 | 0.00 | 1.70 | 1.70 | 51 | 1017.2 |
| 20260507040504 | 1 | 263 | 19.3 | 35.4 | 0.00 | 1.70 | 1.70 | 50 | 1017.1 |
| 20260507040004 | 1 | 261 | 20.9 | 37.0 | 0.00 | 1.70 | 1.70 | 50 | 1017.2 |
| 20260507035504 | 1 | 257 | 19.3 | 37.0 | 0.00 | 1.70 | 1.70 | 50 | 1017.2 |
| 20260507035003 | 1 | 269 | 20.9 | 38.6 | 0.00 | 1.70 | 1.70 | 50 | 1017.6 |
| 20260507034503 | 1 | 265 | 19.3 | 41.8 | 0.00 | 1.70 | 1.70 | 49 | 1017.6 |
| 20260507034004 | 1 | 268 | 19.3 | 45.1 | 0.00 | 1.70 | 1.70 | 50 | 1017.6 |
| 20260507033504 | 1 | 265 | 22.5 | 37.0 | 0.00 | 1.70 | 1.70 | 49 | 1017.6 |
| 20260507033004 | 1 | 255 | 27.4 | 41.8 | 0.00 | 1.70 | 1.70 | 50 | 1017.5 |
| 20260507032504 | 1 | 257 | 20.9 | 35.4 | 0.00 | 1.70 | 1.70 | 51 | 1017.1 |
| 20260507032004 | 1 | 254 | 24.1 | 38.6 | 0.00 | 1.70 | 1.70 | 50 | 1017.1 |
| 20260507031504 | 1 | 255 | 25.7 | 37.0 | 0.00 | 1.70 | 1.70 | 50 | 1016.9 |
| 20260507031004 | 1 | 255 | 25.7 | 37.0 | 0.00 | 1.70 | 1.70 | 51 | 1016.9 |
| 20260507030504 | 1 | 256 | 24.1 | 40.2 | 0.00 | 1.70 | 1.70 | 51 | 1016.9 |
| 20260507030004 | 1 | 246 | 19.3 | 32.2 | 0.00 | 1.70 | 1.70 | 51 | 1016.9 |
| 20260507025004 | 1 | 261 | 16.1 | 38.6 | 0.00 | 1.70 | 1.70 | 52 | 1016.7 |
| 20260507024504 | 1 | 259 | 14.5 | 29.0 | 0.00 | 1.70 | 1.70 | 53 | 1016.8 |
| 20260507023004 | 1 | 262 | 12.9 | 29.0 | 0.00 | 1.70 | 1.70 | 53 | 1016.5 |
| 20260507022504 | 1 | 260 | 11.3 | 35.4 | 0.00 | 1.70 | 1.70 | 53 | 1016.7 |
| 20260507022004 | 1 | 262 | 16.1 | 35.4 | 0.00 | 1.70 | 1.70 | 53 | 1016.5 |
| 20260507021503 | 1 | 248 | 14.5 | 27.4 | 0.00 | 1.70 | 1.70 | 53 | 1016.5 |
| 20260507020004 | 1 | 243 | 14.5 | 27.4 | 0.00 | 1.70 | 1.70 | 52 | 1016.3 |
| 20260507015504 | 1 | 248 | 16.1 | 27.4 | 0.00 | 1.70 | 1.70 | 52 | 1016.2 |
| 20260507015004 | 2 | 244 | 16.1 | 27.4 | 0.00 | 1.70 | 1.70 | 52 | 1016.2 |
| 20260507014504 | 2 | 234 | 11.3 | 20.9 | 0.00 | 1.70 | 1.70 | 52 | 1016.3 |
| 20260507014004 | 2 | 245 | 11.3 | 25.7 | 0.00 | 1.70 | 1.70 | 53 | 1016.2 |
| 20260507013504 | 2 | 242 | 9.7 | 20.9 | 0.03 | 1.70 | 1.70 | 52 | 1016.2 |
| 20260507013005 | 2 | 242 | 9.7 | 16.1 | 0.03 | 1.70 | 1.70 | 51 | 1016.2 |
| 20260507012503 | 2 | 246 | 8.0 | 19.3 | 0.03 | 1.70 | 1.70 | 50 | 1016.2 |
| 20260507011504 | 3 | 254 | 11.3 | 20.9 | 0.03 | 1.70 | 1.70 | 48 | 1016.1 |
| 20260507010504 | 3 | 254 | 11.3 | 29.0 | 0.03 | 1.70 | 1.70 | 49 | 1016.1 |
| 20260507005504 | 3 | 239 | 6.4 | 22.5 | 0.03 | 1.70 | 1.70 | 48 | 1016.4 |
| 20260507005004 | 3 | 241 | 9.7 | 20.9 | 0.03 | 1.70 | 1.70 | 48 | 1016.7 |
| 20260507004504 | 3 | 264 | 8.0 | 29.0 | 0.05 | 1.70 | 1.70 | 48 | 1016.7 |
| 20260507003504 | 4 | 247 | 8.0 | 16.1 | 0.03 | 1.68 | 1.68 | 45 | 1016.7 |
| 20260507003005 | 5 | 251 | 9.7 | 19.3 | 0.03 | 1.68 | 1.68 | 45 | 1016.7 |
| 20260507002504 | 5 | 307 | 4.8 | 14.5 | 0.03 | 1.68 | 1.68 | 46 | 1016.7 |
| 20260507002004 | 5 | 323 | 4.8 | 9.7 | 0.05 | 1.68 | 1.68 | 44 | 1016.7 |
| 20260507001503 | 5 | 226 | 1.6 | 4.8 | 0.05 | 1.68 | 1.68 | 45 | 1016.7 |
| 20260507000504 | 4 | 226 | 3.2 | 8.0 | 0.05 | 1.68 | 1.68 | 43 | 1016.8 |
| 20260507000004 | 5 | 226 | 8.0 | 14.5 | 0.08 | 1.68 | 1.68 | 44 | 1016.8 |
| 20260506235504 | 5 | 205 | 6.4 | 11.3 | 0.08 | 1.68 | 1.68 | 43 | 1016.8 |
| 20260506235004 | 4 | 292 | 3.2 | 4.8 | 0.08 | 1.68 | 1.68 | 45 | 1016.8 |
| 20260506234504 | 4 | 223 | 8.0 | 14.5 | 0.08 | 1.65 | 1.65 | 46 | 1016.9 |
| 20260506234004 | 3 | 250 | 16.1 | 22.5 | 0.10 | 1.65 | 1.65 | 45 | 1016.9 |
| 20260506233504 | 3 | 234 | 6.4 | 20.9 | 0.10 | 1.65 | 1.65 | 48 | 1016.7 |
| 20260506233004 | 3 | 226 | 11.3 | 32.2 | 0.13 | 1.68 | 1.65 | 47 | 1016.7 |
| 20260506232504 | 4 | 245 | 9.7 | 19.3 | 0.15 | 1.68 | 1.65 | 50 | 1016.7 |
| 20260506232003 | 3 | 251 | 14.5 | 24.1 | 0.15 | 1.65 | 1.63 | 49 | 1016.8 |
| 20260506231504 | 3 | 251 | 16.1 | 27.4 | 0.18 | 1.65 | 1.63 | 48 | 1016.7 |
| 20260506231004 | 3 | 268 | 9.7 | 22.5 | 0.20 | 1.65 | 1.63 | 51 | 1016.7 |
| 20260506230504 | 3 | 259 | 16.1 | 29.0 | 0.23 | 1.65 | 1.63 | 49 | 1016.7 |
| 20260506230004 | 3 | 268 | 12.9 | 20.9 | 0.25 | 1.63 | 1.60 | 49 | 1016.6 |
| 20260506225504 | 3 | 245 | 11.3 | 32.2 | 0.28 | 1.63 | 1.60 | 49 | 1016.8 |
| 20260506224504 | 3 | 291 | 3.2 | 9.7 | 0.33 | 1.60 | 1.57 | 69 | 1016.9 |
| 20260506224004 | 2 | 115 | 3.2 | 8.0 | 0.36 | 1.57 | 1.55 | 71 | 1016.9 |
| 20260506223504 | 2 | 78 | 3.2 | 4.8 | 0.41 | 1.57 | 1.55 | 68 | 1016.9 |
| 20260506223004 | 2 | 65 | 1.6 | 4.8 | 0.43 | 1.55 | 1.52 | 70 | 1017.0 |
| 20260506222004 | 2 | 48 | 3.2 | 8.0 | 0.48 | 1.50 | 1.47 | 70 | 1016.9 |
| 20260506221004 | 2 | 75 | 3.2 | 4.8 | 0.51 | 1.45 | 1.42 | 69 | 1017.2 |
| 20260506220504 | 2 | 85 | 1.6 | 3.2 | 0.53 | 1.42 | 1.40 | 69 | 1017.1 |
| 20260506220005 | 2 | 85 | 0.0 | 3.2 | 0.53 | 1.37 | 1.35 | 69 | 1017.2 |
| 20260506215503 | 2 | 85 | 0.0 | 1.6 | 0.58 | 1.35 | 1.32 | 66 | 1017.2 |
| 20260506215005 | 3 | 51 | 1.6 | 4.8 | 0.58 | 1.30 | 1.27 | 70 | 1017.3 |
| 20260506214504 | 2 | 66 | 3.2 | 4.8 | 0.61 | 1.30 | 1.24 | 68 | 1017.5 |
| 20260506214004 | 2 | 57 | 1.6 | 4.8 | 0.64 | 1.24 | 1.19 | 69 | 1017.6 |
| 20260506213504 | 2 | 58 | 4.8 | 8.0 | 0.61 | 1.19 | 1.14 | 71 | 1017.7 |
| 20260506211504 | 1 | 115 | 0.0 | 3.2 | 0.56 | 1.02 | 0.97 | 70 | 1017.8 |
| 20260506211004 | 1 | 111 | 1.6 | 3.2 | 0.53 | 0.97 | 0.91 | 72 | 1017.8 |
| 20260506210504 | 1 | 121 | 0.0 | 1.6 | 0.51 | 0.91 | 0.86 | 72 | 1017.8 |
| 20260506205504 | 1 | 85 | 3.2 | 4.8 | 0.41 | 0.81 | 0.74 | 71 | 1018.1 |
| 20260506205004 | 1 | 88 | 1.6 | 4.8 | 0.38 | 0.76 | 0.69 | 71 | 1018.4 |
| 20260506204504 | 1 | 88 | 3.2 | 8.0 | 0.33 | 0.71 | 0.64 | 70 | 1018.2 |
| 20260506204003 | 1 | 57 | 3.2 | 4.8 | 0.25 | 0.64 | 0.56 | 72 | 1018.6 |
| 20260506203004 | 0 | 77 | 3.2 | 4.8 | 0.20 | 0.56 | 0.48 | 78 | 1018.9 |
| 20260506202004 | 0 | 120 | 4.8 | 8.0 | 0.18 | 0.51 | 0.43 | 79 | 1018.8 |
| 20260506201004 | 0 | 62 | 4.8 | 9.7 | 0.13 | 0.48 | 0.38 | 80 | 1018.9 |
| 20260506200504 | 0 | 86 | 3.2 | 4.8 | 0.13 | 0.46 | 0.36 | 77 | 1019.0 |
| 20260506200004 | 0 | 66 | 4.8 | 9.7 | 0.13 | 0.46 | 0.36 | 78 | 1019.0 |
| 20260506195504 | 0 | 117 | 4.8 | 4.8 | 0.13 | 0.43 | 0.33 | 77 | 1019.0 |
| 20260506195004 | 0 | 114 | 8.0 | 9.7 | 0.10 | 0.41 | 0.30 | 77 | 1019.0 |
| 20260506194504 | 0 | 121 | 3.2 | 11.3 | 0.13 | 0.41 | 0.30 | 78 | 1018.9 |
| 20260506194004 | 0 | 81 | 4.8 | 12.9 | 0.13 | 0.41 | 0.30 | 79 | 1019.0 |
| 20260506193504 | 0 | 109 | 8.0 | 14.5 | 0.10 | 0.38 | 0.28 | 79 | 1019.0 |
| 20260506193004 | 0 | 107 | 8.0 | 11.3 | 0.13 | 0.41 | 0.28 | 79 | 1019.0 |
| 20260506192504 | 0 | 76 | 8.0 | 14.5 | 0.13 | 0.41 | 0.28 | 80 | 1019.0 |
| 20260506192003 | 0 | 84 | 8.0 | 19.3 | 0.13 | 0.38 | 0.25 | 79 | 1019.0 |
| 20260506191504 | 0 | 91 | 8.0 | 19.3 | 0.13 | 0.38 | 0.25 | 80 | 1019.0 |
| 20260506191004 | 0 | 117 | 9.7 | 16.1 | 0.13 | 0.38 | 0.25 | 77 | 1019.0 |
| 20260506190505 | 0 | 127 | 8.0 | 11.3 | 0.13 | 0.36 | 0.23 | 77 | 1019.0 |
| 20260506190004 | 0 | 52 | 9.7 | 16.1 | 0.13 | 0.36 | 0.23 | 79 | 1019.0 |
| 20260506185504 | 0 | 105 | 8.0 | 16.1 | 0.13 | 0.36 | 0.20 | 78 | 1019.0 |
| 20260506185003 | 0 | 101 | 9.7 | 19.3 | 0.15 | 0.36 | 0.20 | 78 | 1019.0 |
| 20260506184504 | 0 | 104 | 11.3 | 19.3 | 0.13 | 0.33 | 0.18 | 78 | 1019.0 |
| 20260506184004 | 0 | 108 | 8.0 | 12.9 | 0.15 | 0.33 | 0.18 | 77 | 1019.0 |
| 20260506183504 | 0 | 106 | 8.0 | 14.5 | 0.15 | 0.33 | 0.18 | 76 | 1019.0 |
| 20260506182504 | 0 | 86 | 6.4 | 11.3 | 0.15 | 0.30 | 0.15 | 72 | 1019.1 |
| 20260506182005 | 1 | 143 | 0.0 | 8.0 | 0.13 | 0.30 | 0.13 | 72 | 1019.1 |
| 20260506181003 | 1 | 151 | 0.0 | 0.0 | 0.13 | 0.30 | 0.13 | 66 | 1019.2 |
| 20260506180503 | 1 | 151 | 0.0 | 0.0 | 0.10 | 0.28 | 0.10 | 70 | 1019.3 |
| 20260506180005 | 1 | 151 | 0.0 | 0.0 | 0.10 | 0.28 | 0.10 | 67 | 1019.2 |
| 20260506175504 | 1 | 151 | 0.0 | 3.2 | 0.08 | 0.28 | 0.08 | 67 | 1019.3 |
| 20260506174504 | 1 | 62 | 0.0 | 3.2 | 0.05 | 0.25 | 0.05 | 71 | 1019.4 |
| 20260506174004 | 0 | 62 | 0.0 | 0.0 | 0.03 | 0.23 | 0.03 | 71 | 1019.5 |
| 20260506173504 | 0 | 76 | 0.0 | 0.0 | 0.03 | 0.23 | 0.03 | 66 | 1019.5 |
| 20260506173004 | 0 | 67 | 0.0 | 3.2 | 0.00 | 0.20 | 0.00 | 72 | 1019.5 |
| 20260506172504 | 0 | 94 | 0.0 | 3.2 | 0.00 | 0.20 | 0.00 | 76 | 1019.5 |
| 20260506172004 | -1 | 70 | 0.0 | 1.6 | 0.00 | 0.20 | 0.00 | 78 | 1019.5 |
| 20260506171504 | -1 | 106 | 0.0 | 0.0 | 0.00 | 0.23 | 0.00 | 78 | 1019.5 |
| 20260506171004 | -2 | 94 | 0.0 | 0.0 | 0.00 | 0.23 | 0.00 | 78 | 1019.4 |
| 20260506170503 | -2 | 107 | 0.0 | 0.0 | 0.00 | 0.23 | 0.00 | 78 | 1019.3 |
| 20260506170004 | -2 | 103 | 0.0 | 0.0 | 0.00 | 0.23 | 0.00 | 80 | 1019.4 |
| 20260506164504 | -2 | 106 | 0.0 | 0.0 | 0.00 | 0.23 | 0.00 | 81 | 1019.3 |
| 20260506164004 | -2 | 99 | 0.0 | 0.0 | 0.00 | 0.25 | 0.00 | 81 | 1019.3 |
| 20260506163503 | -2 | 107 | 0.0 | 0.0 | 0.00 | 0.25 | 0.00 | 82 | 1019.3 |
| 20260506163004 | -2 | 85 | 0.0 | 0.0 | 0.00 | 0.25 | 0.00 | 83 | 1019.3 |
| 20260506162504 | -2 | 80 | 0.0 | 0.0 | 0.00 | 0.25 | 0.00 | 81 | 1019.3 |
| 20260506162004 | -2 | 99 | 0.0 | 0.0 | 0.00 | 0.25 | 0.00 | 82 | 1019.3 |
| 20260506161004 | -3 | 91 | 0.0 | 0.0 | 0.00 | 0.25 | 0.00 | 84 | 1019.2 |
| 20260506160004 | -3 | 72 | 0.0 | 0.0 | 0.00 | 0.25 | 0.00 | 85 | 1019.0 |
| 20260506155504 | -3 | 84 | 0.0 | 0.0 | 0.00 | 0.25 | 0.00 | 86 | 1019.1 |
| 20260506154504 | -3 | 89 | 0.0 | 0.0 | 0.00 | 0.25 | 0.00 | 88 | 1018.8 |
| 20260506154004 | -3 | 105 | 0.0 | 0.0 | 0.00 | 0.25 | 0.00 | 87 | 1018.6 |
| 20260506153504 | -3 | 98 | 0.0 | 0.0 | 0.00 | 0.25 | 0.00 | 87 | 1018.6 |
| 20260506153003 | -3 | 94 | 0.0 | 0.0 | 0.00 | 0.25 | 0.00 | 88 | 1018.6 |
| 20260506151503 | -4 | 78 | 0.0 | 0.0 | 0.00 | 0.25 | 0.00 | 88 | 1018.6 |
| 20260506151004 | -4 | 91 | 0.0 | 0.0 | 0.00 | 0.25 | 0.00 | 89 | 1018.5 |
| 20260506150504 | -4 | 112 | 0.0 | 0.0 | 0.00 | 0.25 | 0.00 | 89 | 1018.4 |
| 20260506150004 | -4 | 107 | 0.0 | 0.0 | 0.00 | 0.25 | 0.00 | 89 | 1018.4 |
| 20260506145504 | -4 | 114 | 0.0 | 0.0 | 0.00 | 0.25 | 0.00 | 89 | 1018.3 |
| 20260506145004 | -4 | 99 | 0.0 | 0.0 | 0.00 | 0.25 | 0.00 | 90 | 1017.9 |
| 20260506144504 | -4 | 111 | 0.0 | 0.0 | 0.00 | 0.25 | 0.00 | 90 | 1017.9 |
| 20260506144004 | -4 | 91 | 0.0 | 0.0 | 0.00 | 0.25 | 0.00 | 91 | 1017.9 |
| 20260506143504 | -4 | 110 | 0.0 | 0.0 | 0.00 | 0.25 | 0.00 | 91 | 1017.9 |
| 20260506142504 | -5 | 107 | 0.0 | 0.0 | 0.00 | 0.25 | 0.00 | 92 | 1018.3 |
| 20260506142003 | -5 | 85 | 0.0 | 0.0 | 0.00 | 0.25 | 0.00 | 92 | 1018.4 |
| 20260506141504 | -5 | 113 | 0.0 | 0.0 | 0.00 | 0.25 | 0.00 | 91 | 1018.4 |
| 20260506140503 | -5 | 109 | 0.0 | 0.0 | 0.00 | 0.25 | 0.00 | 92 | 1018.2 |
| 20260506140004 | -5 | 97 | 0.0 | 0.0 | 0.00 | 0.25 | 0.00 | 92 | 1018.2 |
| 20260506135505 | -5 | 116 | 0.0 | 0.0 | 0.00 | 0.25 | 0.00 | 92 | 1017.9 |
| 20260506135004 | -5 | 86 | 0.0 | 0.0 | 0.00 | 0.25 | 0.00 | 92 | 1017.6 |
| 20260506134504 | -5 | 78 | 0.0 | 0.0 | 0.00 | 0.25 | 0.00 | 92 | 1017.5 |
| 20260506133004 | -5 | 75 | 0.0 | 0.0 | 0.00 | 0.25 | 0.00 | 93 | 1017.2 |
| 20260506132504 | -5 | 84 | 0.0 | 0.0 | 0.00 | 0.25 | 0.00 | 93 | 1017.2 |
| 20260506132005 | -5 | 71 | 0.0 | 0.0 | 0.00 | 0.25 | 0.00 | 92 | 1017.2 |
| 20260506131503 | -5 | 86 | 0.0 | 0.0 | 0.00 | 0.25 | 0.00 | 92 | 1017.2 |
| 20260506131004 | -5 | 121 | 0.0 | 0.0 | 0.00 | 0.25 | 0.00 | 93 | 1017.2 |
| 20260506130504 | -5 | 100 | 0.0 | 0.0 | 0.00 | 0.25 | 0.00 | 92 | 1017.1 |
| 20260506130005 | -5 | 89 | 0.0 | 0.0 | 0.00 | 0.25 | 0.00 | 93 | 1016.7 |
| 20260506125504 | -5 | 80 | 0.0 | 0.0 | 0.00 | 0.25 | 0.00 | 93 | 1016.6 |
| 20260506125004 | -5 | 85 | 0.0 | 0.0 | 0.00 | 0.25 | 0.00 | 93 | 1016.6 |
| 20260506124504 | -5 | 82 | 0.0 | 0.0 | 0.00 | 0.25 | 0.00 | 93 | 1016.5 |
| 20260506124004 | -5 | 80 | 0.0 | 0.0 | 0.00 | 0.25 | 0.00 | 93 | 1016.5 |
| 20260506123503 | -5 | 81 | 0.0 | 0.0 | 0.00 | 0.25 | 0.00 | 93 | 1016.5 |
| 20260506123004 | -5 | 72 | 0.0 | 0.0 | 0.00 | 0.25 | 0.00 | 93 | 1016.5 |
| 20260506122504 | -5 | 92 | 0.0 | 0.0 | 0.00 | 0.25 | 0.00 | 93 | 1016.2 |
| 20260506122004 | -5 | 89 | 0.0 | 0.0 | 0.00 | 0.25 | 0.00 | 93 | 1016.4 |
| 20260506121504 | -5 | 89 | 0.0 | 0.0 | 0.00 | 0.25 | 0.00 | 93 | 1016.3 |
| 20260506120504 | -5 | 99 | 0.0 | 0.0 | 0.00 | 0.25 | 0.00 | 93 | 1016.0 |
| 20260506120003 | -5 | 95 | 0.0 | 0.0 | 0.00 | 0.25 | 0.00 | 93 | 1015.9 |
| 20260506115504 | -5 | 98 | 0.0 | 0.0 | 0.00 | 0.25 | 0.00 | 93 | 1015.9 |
| 20260506115004 | -5 | 74 | 0.0 | 0.0 | 0.00 | 0.25 | 0.00 | 93 | 1015.9 |
| 20260506114504 | -5 | 79 | 0.0 | 0.0 | 0.00 | 0.25 | 0.00 | 93 | 1015.9 |
| 20260506114005 | -5 | 98 | 0.0 | 0.0 | 0.00 | 0.25 | 0.00 | 93 | 1015.9 |
| 20260506113504 | -5 | 98 | 0.0 | 0.0 | 0.00 | 0.25 | 0.00 | 92 | 1015.9 |
| 20260506112503 | -5 | 101 | 0.0 | 0.0 | 0.00 | 0.25 | 0.00 | 93 | 1015.9 |
| 20260506111503 | -5 | 84 | 0.0 | 0.0 | 0.00 | 0.25 | 0.00 | 93 | 1015.6 |
| 20260506111004 | -5 | 78 | 0.0 | 0.0 | 0.00 | 0.25 | 0.00 | 93 | 1015.6 |
| 20260506110504 | -5 | 46 | 0.0 | 0.0 | 0.00 | 0.25 | 0.00 | 93 | 1015.5 |
| 20260506110004 | -5 | 46 | 0.0 | 0.0 | 0.00 | 0.25 | 0.00 | 93 | 1015.3 |
| 20260506105504 | -5 | 46 | 0.0 | 0.0 | 0.00 | 0.25 | 0.00 | 93 | 1015.1 |
| 20260506105004 | -5 | 46 | 0.0 | 0.0 | 0.00 | 0.25 | 0.00 | 93 | 1014.9 |
| 20260506104004 | -4 | 46 | 0.0 | 0.0 | 0.00 | 0.25 | 0.00 | 93 | 1014.8 |
| 20260506103504 | -5 | 46 | 0.0 | 0.0 | 0.00 | 0.25 | 0.00 | 93 | 1014.8 |
| 20260506103004 | -4 | 46 | 0.0 | 0.0 | 0.00 | 0.25 | 0.00 | 93 | 1014.8 |
| 20260506102503 | -4 | 46 | 0.0 | 0.0 | 0.00 | 0.25 | 0.00 | 93 | 1014.6 |
| 20260506102004 | -4 | 46 | 0.0 | 0.0 | 0.00 | 0.25 | 0.00 | 93 | 1014.6 |
| 20260506101504 | -4 | 46 | 0.0 | 0.0 | 0.00 | 0.25 | 0.00 | 93 | 1014.7 |
| 20260506101004 | -4 | 46 | 0.0 | 0.0 | 0.00 | 0.25 | 0.00 | 93 | 1014.7 |
| 20260506100504 | -4 | 46 | 0.0 | 0.0 | 0.00 | 0.25 | 0.00 | 93 | 1014.9 |
| 20260506100004 | -5 | 46 | 0.0 | 0.0 | 0.00 | 0.25 | 0.00 | 93 | 1015.0 |
| 20260506095003 | -4 | 46 | 0.0 | 0.0 | 0.00 | 0.25 | 0.00 | 93 | 1014.7 |
| 20260506094503 | -4 | 46 | 0.0 | 0.0 | 0.00 | 0.25 | 0.00 | 93 | 1014.8 |
| 20260506094004 | -4 | 46 | 0.0 | 0.0 | 0.00 | 0.25 | 0.00 | 93 | 1014.9 |
| 20260506093504 | -4 | 46 | 0.0 | 0.0 | 0.00 | 0.25 | 0.00 | 93 | 1014.8 |
| 20260506093004 | -4 | 46 | 0.0 | 0.0 | 0.00 | 0.25 | 0.00 | 93 | 1014.9 |
| 20260506092503 | -4 | 46 | 0.0 | 0.0 | 0.00 | 0.25 | 0.00 | 93 | 1015.0 |
| 20260506092004 | -4 | 46 | 0.0 | 0.0 | 0.00 | 0.25 | 0.00 | 93 | 1014.9 |
| 20260506091504 | -4 | 46 | 0.0 | 0.0 | 0.00 | 0.25 | 0.00 | 93 | 1014.9 |
| 20260506091004 | -4 | 46 | 0.0 | 0.0 | 0.00 | 0.25 | 0.00 | 93 | 1014.8 |
| 20260506090503 | -4 | 46 | 0.0 | 0.0 | 0.00 | 0.28 | 0.00 | 93 | 1014.8 |
| 20260506090004 | -4 | 46 | 0.0 | 0.0 | 0.00 | 0.28 | 0.00 | 93 | 1014.9 |
| 20260506085504 | -4 | 46 | 0.0 | 0.0 | 0.00 | 0.28 | 0.00 | 93 | 1015.1 |
| 20260506085004 | -4 | 46 | 0.0 | 0.0 | 0.00 | 0.28 | 0.00 | 93 | 1015.1 |
| 20260506084504 | -4 | 46 | 0.0 | 0.0 | 0.00 | 0.28 | 0.00 | 93 | 1015.1 |
| 20260506083504 | -4 | 46 | 0.0 | 0.0 | 0.00 | 0.28 | 0.00 | 93 | 1015.0 |
| 20260506083004 | -4 | 46 | 0.0 | 0.0 | 0.00 | 0.28 | 0.00 | 93 | 1015.0 |
| 20260506082504 | -4 | 46 | 0.0 | 0.0 | 0.00 | 0.28 | 0.00 | 93 | 1015.1 |
| 20260506082003 | -4 | 46 | 0.0 | 0.0 | 0.00 | 0.28 | 0.00 | 93 | 1015.2 |
| 20260506081503 | -4 | 46 | 0.0 | 0.0 | 0.00 | 0.28 | 0.00 | 93 | 1015.2 |
| 20260506080504 | -4 | 86 | 0.0 | 0.0 | 0.00 | 0.30 | 0.00 | 93 | 1015.3 |
| 20260506073504 | -4 | 78 | 0.0 | 0.0 | 0.00 | 0.30 | 0.00 | 93 | 1014.7 |
| 20260506073004 | -4 | 100 | 0.0 | 0.0 | 0.00 | 0.33 | 0.00 | 93 | 1014.7 |
| 20260506072504 | -3 | 107 | 0.0 | 0.0 | 0.00 | 0.36 | 0.00 | 93 | 1014.8 |
| 20260506072004 | -3 | 80 | 0.0 | 0.0 | 0.00 | 0.38 | 0.00 | 93 | 1014.8 |
| 20260506071504 | -3 | 86 | 0.0 | 0.0 | 0.00 | 0.41 | 0.00 | 93 | 1015.1 |
| 20260506071004 | -3 | 91 | 0.0 | 0.0 | 0.00 | 0.41 | 0.00 | 93 | 1015.1 |
| 20260506062503 | -3 | 66 | 0.0 | 0.0 | 0.00 | 0.41 | 0.00 | 94 | 1014.6 |
| 20260506061504 | -3 | 67 | 0.0 | 0.0 | 0.00 | 0.41 | 0.00 | 94 | 1014.2 |
| 20260506061004 | -3 | 67 | 0.0 | 0.0 | 0.00 | 0.41 | 0.00 | 94 | 1014.2 |
| 20260506060504 | -3 | 67 | 0.0 | 0.0 | 0.00 | 0.41 | 0.00 | 94 | 1014.5 |
| 20260506051004 | -3 | 67 | 0.0 | 0.0 | 0.00 | 0.41 | 0.41 | 93 | 1013.3 |
| 20260506050504 | -3 | 67 | 0.0 | 0.0 | 0.00 | 0.41 | 0.41 | 93 | 1013.3 |
| 20260506045004 | -3 | 78 | 0.0 | 0.0 | 0.00 | 0.41 | 0.41 | 93 | 1013.2 |